{"data":{"norad_id":68799,"intl_designator":"2026-088H","name":"KAKUSHIN RISING OBJECT H","alt_names":[],"object_type":"PAYLOAD","status":"ACTIVE","operator":null,"country":"JPN","launch_date":"2026-04-23","launch_site_code":"RLLB","launch_vehicle":null,"mission":null,"orbit_class":"UNKNOWN","rcs_meters":null,"size_class":null,"mass_kg":null,"dimensions":null,"purposes":[],"wikipedia_slug":null,"has_3d_model":false,"image_url":null,"decayed_at":null,"tle_current":{"epoch":"2026-09-19T08:49:39.243648Z","epoch_age_seconds":157517,"freshness":"FRESH","line1":"1 68799U 26088H   26262.36781532  .00003186  00000+0  20242-3 0  9996","line2":"2 68799  97.5185  49.7949 0020084 116.5360 243.7931 15.09401017 22500","mean_motion":15.09401017,"eccentricity":0.0020084,"inclination_deg":97.5185,"raan_deg":49.7949,"arg_perigee_deg":116.536,"mean_anomaly_deg":243.7931,"bstar":0.00020242,"rev_number":2250,"period_min":95.402082268506,"perigee_km":524.13868756358,"apogee_km":551.91954361668,"semimajor_km":6916.1661155901,"source":"CELESTRAK","updated_at":"2026-09-20T09:00:24.464613Z"}}}